THORAD AGENA D DEB, 4914

Orbit data source: Space-Track

THORAD AGENA D DEB, 4914 is space debris in SSO originally from a launch on Wed, 08 Apr 1970 UTC launched from the Air Force Western Test Range (AFWTR). Debris objects in space refer to the collection of defunct objects orbiting the Earth. Examples of debris include non-operational satellites, rocket bodies, and fragments generated from explosions, collisions, or faulty payload assembly.

Loading next visibility...
Identifier
4914, 1970-025FL
Orbit
SSO
Country
Flag of USUS
Related business
Manufacturer
Unknown
Mission
Spacecraft
Bus & Motor
Unknown
Mass
Unknown
Launch date (UTC)
1970-04-08 (56 years ago)
Launch vehicle
Unknown
Launch site
Air Force Western Test Range (AFWTR)
Object type
Payload
Rocket body
Debris
Shape & HBR
Unknown shape, 0.1 m
Radar Cross Section
Small (<0.1 m²)

Expand to show TLE details & history
Last TLE update: 23 hours ago

TLE from 23 hours ago
0 THORAD AGENA D DEB
1 04914U 70025FL  26072.35804899  .00003319  00000-0  37550-2 0  9993
2 04914  99.4425  20.2078 0077877  96.8839  68.4487 13.69845654761654
Epoch: 2026-03-13T08:35Z
TLE epoch observation values (Epoch: 2026-03-13T08:35:35.432Z)
Latitude
13.61187°
Longitude
-97.38857°
Altitude
981.487 km
Speed
7.372 km/s
True Right ascension
13h 30m 00s
True Declination
13° 32' 09"
Sunlit
Object was in full shadow at epoch
Visualization orbit readout
Latitude
Unknown
Longitude
Unknown
Altitude
Unknown
Speed
Unknown
Apparent Right ascension
Unknown
Apparent Declination
Unknown
Sunlit
N/A
Visualization observer readout
Local Sidereal Time
12:19:19
Azimuth
Unknown
Elevation
Unknown
Doppler factor
Unknown
Orbital elements
Apogee altitude
1,054.825 km
Perigee altitude
939.948 km
Semi-major axis
7,375.524 km
Eccentricity
0.00779
Inclination
99.4425°
RAAN
20.2078°
Arg. of periapsis
96.8839°
True anomaly
69.28166°
Mean anomaly
68.4487°
Eccentric anomaly
68.86489°
Mean motion
3.42652 °/min
Orbital period
105.06 mins
BSTAR
0.003755
Loading maneuver chart data...
Computing Atmospheric mass density...

Documentation

Showing up to 5 results
|